Monterey, CA

7:18 PM PDT on July 20, 2017 (GMT -0700)
Monterey Peninsula

Weather History for KMRY - January, 2013

Change the Weather History Date:

Saturday, January 19, 2013

  Actual Average Record
Temperature  
Mean Temperature 55 °F 51 °F  
Max Temperature 70 °F 59 °F 80 °F (2009)
Min Temperature 40 °F 43 °F 35 °F (2002)
Degree Days  
Heating Degree Days 10    
Month to date heating degree days 325  
Since 1 July heating degree days 1683  
Cooling Degree Days 0    
Month to date cooling degree days 0  
Year to date cooling degree days 0  
Growing Degree Days 6 (Base 50)    
Moisture  
Dew Point 30 °F    
Average Humidity 45    
Maximum Humidity 70    
Minimum Humidity 20    
Precipitation  
Precipitation 0.00 in - 0.96 in (2016)
Month to date precipitation 0.64  
Year to date precipitation 0.64  
Since 1 July precipitation 8.88  
Sea Level Pressure  
Sea Level Pressure 30.19 in    
Wind  
Wind Speed 3 mph (East)    
Max Wind Speed 10 mph    
Max Gust Speed 12 mph    
Visibility 10 miles    
Events      
T = Trace of Precipitation, MM = Missing Value Source: NWS Daily Summary

Daily Weather History Graph

Daily Weather History Graph

Search for Another Location

Airport or City:

Trip Planner

Search our weather history database for the weather conditions in past years. The results will help you decide how hot, cold, wet, or windy it might be!

Date:

Astronomy

Jan. 19, 2013 Rise Set
Actual Time 7:17 AM PST 5:19 PM PST
Civil Twilight 6:49 AM PST 5:47 PM PST
Nautical Twilight 6:17 AM PST 6:19 PM PST
Astronomical Twilight 5:46 AM PST 6:50 PM PST
Moon 11:47 AM PST (1/19) 12:58 AM PST (1/19)
Length of Visible Light 10h 58m
Length of Day
10h 02m
First Quarter, 58% of the Moon is Illuminated
Jan 19
First Quarter
Jan 26
Full
Feb 3
Last Quarter
Feb 9
New
Feb 17
First Quarter

Hourly Weather History & Observations

Time (PST) Temp. Windchill Dew Point Humidity Pressure Visibility Wind Dir Wind Speed Gust Speed Precip Events Conditions
12:54 AM 45.0 °F 43.5 °F 30.9 °F 58% 30.17 in 10.0 mi ESE 3.5 mph - N/A   Clear
1:54 AM 43.0 °F 39.5 °F 30.0 °F 60% 30.17 in 10.0 mi East 5.8 mph - N/A   Clear
2:54 AM 44.1 °F - 28.9 °F 55% 30.17 in 10.0 mi Calm Calm - N/A   Clear
3:54 AM 45.0 °F - 28.9 °F 53% 30.17 in 10.0 mi Calm Calm - N/A   Clear
4:54 AM 50.0 °F - 26.1 °F 39% 30.17 in 10.0 mi East 5.8 mph - N/A   Clear
5:54 AM 45.0 °F 43.5 °F 27.0 °F 49% 30.19 in 10.0 mi East 3.5 mph - N/A   Clear
6:54 AM 44.1 °F - 26.1 °F 49% 30.19 in 10.0 mi Calm Calm - N/A   Clear
7:54 AM 44.1 °F - 27.0 °F 51% 30.20 in 10.0 mi Calm Calm - N/A   Clear
8:54 AM 48.0 °F - 30.0 °F 50% 30.22 in 10.0 mi Calm Calm - N/A   Clear
9:54 AM 52.0 °F - 37.0 °F 57% 30.24 in 10.0 mi Calm Calm - N/A   Clear
10:54 AM 57.0 °F - 37.9 °F 49% 30.23 in 10.0 mi WSW 3.5 mph - N/A   Clear
11:54 AM 64.0 °F - 33.1 °F 31% 30.20 in 10.0 mi WSW 3.5 mph - N/A   Clear
12:54 PM 64.9 °F - 33.1 °F 31% 30.19 in 10.0 mi WSW 4.6 mph - N/A   Clear
1:54 PM 66.9 °F - 27.0 °F 22% 30.18 in 10.0 mi WNW 5.8 mph - N/A   Clear
2:54 PM 70.0 °F - 33.1 °F 26% 30.17 in 10.0 mi NNW 3.5 mph - N/A   Clear
3:54 PM 69.1 °F - 26.1 °F 20% 30.17 in 10.0 mi WNW 3.5 mph - N/A   Clear
4:54 PM 64.9 °F - 30.0 °F 27% 30.17 in 10.0 mi Calm Calm - N/A   Clear
5:54 PM 55.0 °F - 33.1 °F 43% 30.18 in 10.0 mi ESE 3.5 mph - N/A   Clear
6:54 PM 50.0 °F - 30.9 °F 48% 30.19 in 10.0 mi East 5.8 mph - N/A   Clear
7:54 PM 48.0 °F - 30.9 °F 52% 30.20 in 10.0 mi East 6.9 mph - N/A   Clear
8:54 PM 46.9 °F - 30.9 °F 54% 30.21 in 10.0 mi East 4.6 mph - N/A   Clear
9:54 PM 46.9 °F - 30.9 °F 54% 30.22 in 10.0 mi East 5.8 mph - N/A   Clear
10:54 PM 46.0 °F 44.8 °F 30.9 °F 56% 30.23 in 10.0 mi East 3.5 mph - N/A   Clear
11:54 PM 44.1 °F 40.8 °F 30.0 °F 58% 30.22 in 10.0 mi East 5.8 mph - N/A   Clear